Regional Weather Roundup
Issued by NWS Kansas City/Pleasant Hill, MO

Home | Current Version | Previous Version | Graphics & Text | Print | Product List | Glossary Off
Versions: 1 2 3 4 5 6 7 8 9 10 11 12 13 14 15 16 17 18 19 20 21 22 23 24 25 26 27 28 29 30 31 32 33 34 35 36 37 38 39 40 41 42 43 44 45 46 47 48 49 50

000
ASUS43 KEAX 261904
RWREAX

WEATHER ROUNDUP FOR EASTERN KANSAS AND NORTHWEST MISSOURI
NATIONAL WEATHER SERVICE KANSAS CITY/PLEASANT HILL MO
200 PM CDT THU MAR 26 2015

KSZ040-057-103>105-MOZ028-029-037-043-262000-
...KANSAS CITY METROPOLITAN AREA...

CITY           SKY/WX    TMP DP  RH WIND       PRES   REMARKS
K.C. INTL      MOSUNNY   47  28  47 NW10      30.15F
K.C. DOWNTOWN  SUNNY     51  27  39 NW10G17   30.16F
LEES SUMMIT    SUNNY     48  26  42 NW10G21   30.15F
OLATHE - IXD   MOSUNNY   48  28  46 NW8G22    30.17F
OLATHE - OJC   MOSUNNY   48  27  44 N13       30.15F
LAWRENCE       SUNNY     49  27  42 N8        30.18F

$$

MOZ001>008-011>017-020>025-030>033-038>040-044>046-053-054-262000-
...NORTHERN AND CENTRAL MISSOURI...

CITY           SKY/WX    TMP DP  RH WIND       PRES   REMARKS
ST. JOSEPH     SUNNY     47  27  45 NW8       30.16F
MOSBY          PTCLDY    45  28  53 NW14      30.16F
WARRENSBURG    SUNNY     48  28  46 N9G17     30.15S
WHITEMAN AFB   NOT AVBL
CLINTON        SUNNY     48  30  49 N9        30.15S
SEDALIA        MOSUNNY   48  32  53 N18       30.13F
WARSAW         NOT AVBL
MARSHALL       SUNNY     48  32  53 NW15G21   30.14F
CHILLICOTHE      N/A     48  29  47 NW8       30.14F
MOBERLY        SUNNY     48  30  49 W14G20    30.11F
KIRKSVILLE     SUNNY     47  22  37 NW9       30.10F

$$

MOZ041-047>049-056>058-063>065-088>090-097-262000-
...EASTERN AND SOUTHERN MISSOURI...

CITY           SKY/WX    TMP DP  RH WIND       PRES   REMARKS
ST. LOUIS INTL CLOUDY    47  31  53 NW13G26   30.07F
SPIRIT OF STL  PTSUNNY   47  28  47 NW14G22   30.07F
COLUMBIA       SUNNY     47  29  49 NW9       30.09F
JEFFERSON CITY SUNNY     48  26  42 NW12      30.10F
MEXICO         SUNNY     48  37  66 NW12      30.10F
HANNIBAL       SUNNY     50  21  32 NW10G18   30.08F
ROLLA          SUNNY     45  30  55 MISG      30.06F
LEBANON        SUNNY     46  28  49 NW8       30.10S
OSAGE BEACH    SUNNY     48  28  46 N8        30.11S
SPRINGFIELD    SUNNY     49  30  48 N14       30.11F
BRANSON        MOSUNNY   48  34  57 N13G18    30.10F
NEVADA         SUNNY     48  28  46 NW10G16   30.17F
JOPLIN         SUNNY     50  31  48 N13       30.16F
WEST PLAINS    PTSUNNY   46  32  58 MISG      30.07S

$$

IAZ060-094-KSZ022-034>040-054-083-096-NEZ052-066-093-262000-
...KANSAS...SOUTHEAST NEBRASKA AND IOWA...

CITY           SKY/WX    TMP DP  RH WIND       PRES   REMARKS
TOPEKA         SUNNY     50  28  42 NW10G22   30.19F
MANHATTAN      SUNNY     51  26  37 VRB3      30.18F
EMPORIA        SUNNY     49  24  37 N10       30.18F
CHANUTE        SUNNY     51  28  41 NW8       30.18F
WICHITA        MOSUNNY   51  28  41 N7        30.20F
OMAHA          PTSUNNY   47  23  38 VRB5      30.14F
LINCOLN        MOSUNNY   49  23  36 NW7       30.15F
FALLS CITY     SUNNY     48  29  47 N10       30.16F
LAMONI         MOSUNNY   47  25  42 NW16G22   30.11F
DES MOINES     PTSUNNY   45  22  40 N18G24    30.12F

$$




USA.gov is the U.S. government's official web portal to all federal, state and local government web resources and services.